Time,TemperatureF,DewpointF,PressureIn,WindDirection,WindDirectionDegrees,WindSpeedMPH,WindSpeedGustMPH,Humidity,HourlyPrecipIn,Conditions,Clouds,dailyrainin,SoftwareType,DateUTC
2013-10-17 00:01:00,71.7,67.6,29.95,NW,325,0.0,0.0,87,0.00,,,0.00,WeatherCatV1.21B27,2013-10-17 04:01:00,
2013-10-17 00:03:00,71.7,67.9,29.95,NW,325,0.0,0.0,88,0.00,,,0.00,WeatherCatV1.21B27,2013-10-17 04:03:00,
2013-10-17 00:08:00,71.7,67.9,29.94,NW,325,0.0,0.0,88,0.00,,,0.00,WeatherCatV1.21B27,2013-10-17 04:08:00,
2013-10-17 00:13:00,71.6,67.8,29.94,NW,325,0.0,0.0,88,0.00,,,0.00,WeatherCatV1.21B27,2013-10-17 04:13:00,
2013-10-17 00:18:00,71.6,67.8,29.94,NW,325,0.0,0.0,88,0.00,,,0.00,WeatherCatV1.21B27,2013-10-17 04:18:00,
2013-10-17 00:23:00,71.6,67.8,29.94,NW,325,0.0,0.0,88,0.00,,,0.00,WeatherCatV1.21B27,2013-10-17 04:23:00,
2013-10-17 00:28:00,71.5,67.8,29.94,NW,325,0.0,0.0,88,0.00,,,0.00,WeatherCatV1.21B27,2013-10-17 04:28:00,
2013-10-17 00:33:00,71.5,67.8,29.94,NW,325,0.0,0.0,88,0.00,,,0.00,WeatherCatV1.21B27,2013-10-17 04:33:00,
2013-10-17 00:38:00,71.4,67.7,29.94,NW,325,0.0,0.0,88,0.00,,,0.00,WeatherCatV1.21B27,2013-10-17 04:38:00,
2013-10-17 00:43:00,71.4,68.0,29.93,NW,325,0.0,0.0,89,0.00,,,0.00,WeatherCatV1.21B27,2013-10-17 04:43:00,
2013-10-17 00:48:00,71.5,68.1,29.93,NW,325,0.0,0.0,89,0.00,,,0.00,WeatherCatV1.21B27,2013-10-17 04:48:00,
2013-10-17 00:53:00,71.5,68.1,29.93,NW,325,0.0,0.0,89,0.00,,,0.00,WeatherCatV1.21B27,2013-10-17 04:53:00,
2013-10-17 00:58:00,71.5,68.1,29.93,NW,325,0.0,1.0,89,0.00,,,0.00,WeatherCatV1.21B27,2013-10-17 04:58:00,
2013-10-17 01:03:00,71.6,68.2,29.93,NW,325,0.0,1.0,89,0.00,,,0.00,WeatherCatV1.21B27,2013-10-17 05:03:00,
2013-10-17 01:08:00,71.6,68.2,29.93,NW,325,0.0,0.0,89,0.00,,,0.00,WeatherCatV1.21B27,2013-10-17 05:08:00,
2013-10-17 01:13:00,71.7,68.3,29.93,NW,325,0.0,1.0,89,0.00,,,0.00,WeatherCatV1.21B27,2013-10-17 05:13:00,
2013-10-17 01:18:00,71.7,68.3,29.93,NW,325,1.0,1.0,89,0.00,,,0.00,WeatherCatV1.21B27,2013-10-17 05:18:00,
2013-10-17 01:23:00,71.7,68.3,29.93,NW,325,0.0,1.0,89,0.00,,,0.00,WeatherCatV1.21B27,2013-10-17 05:23:00,
2013-10-17 01:28:00,71.8,68.4,29.93,NW,325,0.0,3.0,89,0.00,,,0.00,WeatherCatV1.21B27,2013-10-17 05:28:00,
2013-10-17 01:33:00,71.8,68.4,29.93,NW,325,0.0,2.0,89,0.00,,,0.00,WeatherCatV1.21B27,2013-10-17 05:33:00,
2013-10-17 01:38:00,71.8,68.0,29.93,NW,325,1.0,2.0,88,0.00,,,0.00,WeatherCatV1.21B27,2013-10-17 05:38:00,
2013-10-17 01:43:00,71.7,67.9,29.93,NW,325,0.0,0.0,88,0.00,,,0.00,WeatherCatV1.21B27,2013-10-17 05:43:00,
2013-10-17 01:48:00,71.6,67.8,29.93,NW,325,0.0,0.0,88,0.00,,,0.00,WeatherCatV1.21B27,2013-10-17 05:48:00,
2013-10-17 01:53:00,71.6,67.8,29.93,NW,325,0.0,0.0,88,0.00,,,0.00,WeatherCatV1.21B27,2013-10-17 05:53:00,
2013-10-17 01:58:00,71.5,67.8,29.92,NW,325,0.0,0.0,88,0.00,,,0.00,WeatherCatV1.21B27,2013-10-17 05:58:00,
2013-10-17 02:03:00,71.4,67.7,29.92,NW,325,0.0,0.0,88,0.00,,,0.00,WeatherCatV1.21B27,2013-10-17 06:03:00,
2013-10-17 02:08:00,71.3,67.6,29.92,NW,325,0.0,0.0,88,0.00,,,0.00,WeatherCatV1.21B27,2013-10-17 06:08:00,
2013-10-17 02:13:00,71.2,67.8,29.92,NW,326,0.0,0.0,89,0.00,,,0.00,WeatherCatV1.21B27,2013-10-17 06:13:00,
2013-10-17 02:18:00,71.2,67.8,29.92,NW,326,0.0,0.0,89,0.00,,,0.00,WeatherCatV1.21B27,2013-10-17 06:18:00,
2013-10-17 02:23:00,71.1,67.7,29.92,NW,326,0.0,0.0,89,0.00,,,0.00,WeatherCatV1.21B27,2013-10-17 06:23:00,
2013-10-17 02:28:00,71.0,67.6,29.92,NW,326,0.0,0.0,89,0.00,,,0.00,WeatherCatV1.21B27,2013-10-17 06:28:00,
2013-10-17 02:33:00,70.9,67.5,29.92,NW,326,0.0,0.0,89,0.00,,,0.00,WeatherCatV1.21B27,2013-10-17 06:33:00,
2013-10-17 02:38:00,70.8,67.4,29.92,NW,326,0.0,0.0,89,0.00,,,0.00,WeatherCatV1.21B27,2013-10-17 06:38:00,
2013-10-17 02:43:00,70.7,67.3,29.92,NW,326,0.0,0.0,89,0.00,,,0.00,WeatherCatV1.21B27,2013-10-17 06:43:00,
2013-10-17 02:48:00,70.6,67.2,29.92,NW,326,0.0,0.0,89,0.00,,,0.00,WeatherCatV1.21B27,2013-10-17 06:48:00,
2013-10-17 02:53:00,70.5,67.1,29.91,NW,326,0.0,0.0,89,0.00,,,0.00,WeatherCatV1.21B27,2013-10-17 06:53:00,
2013-10-17 02:58:00,70.5,67.4,29.91,NW,326,0.0,0.0,90,0.00,,,0.00,WeatherCatV1.21B27,2013-10-17 06:58:00,
2013-10-17 03:03:00,70.4,67.3,29.91,NW,326,0.0,0.0,90,0.00,,,0.00,WeatherCatV1.21B27,2013-10-17 07:03:00,
2013-10-17 03:08:00,70.4,67.3,29.91,NW,326,0.0,0.0,90,0.00,,,0.00,WeatherCatV1.21B27,2013-10-17 07:08:00,
2013-10-17 03:13:00,70.4,67.3,29.91,NW,326,0.0,0.0,90,0.00,,,0.00,WeatherCatV1.21B27,2013-10-17 07:13:00,
2013-10-17 03:18:00,70.3,67.2,29.91,NW,326,0.0,0.0,90,0.00,,,0.00,WeatherCatV1.21B27,2013-10-17 07:18:00,
2013-10-17 03:23:00,70.3,67.2,29.91,NW,326,0.0,0.0,90,0.00,,,0.00,WeatherCatV1.21B27,2013-10-17 07:23:00,
2013-10-17 03:28:00,70.2,67.1,29.91,NNW,328,0.0,0.0,90,0.00,,,0.00,WeatherCatV1.21B27,2013-10-17 07:28:00,
2013-10-17 03:33:00,70.2,67.1,29.91,NNW,335,0.0,0.0,90,0.00,,,0.00,WeatherCatV1.21B27,2013-10-17 07:33:00,
2013-10-17 03:38:00,70.1,67.0,29.91,NNW,335,0.0,0.0,90,0.00,,,0.00,WeatherCatV1.21B27,2013-10-17 07:38:00,
2013-10-17 03:43:00,70.1,67.0,29.91,NNW,335,0.0,0.0,90,0.00,,,0.00,WeatherCatV1.21B27,2013-10-17 07:43:00,
2013-10-17 03:48:00,70.1,67.0,29.91,NNW,335,0.0,0.0,90,0.00,,,0.00,WeatherCatV1.21B27,2013-10-17 07:48:00,
2013-10-17 03:53:00,70.1,67.0,29.91,NNW,335,0.0,0.0,90,0.00,,,0.00,WeatherCatV1.21B27,2013-10-17 07:53:00,
2013-10-17 03:58:00,70.1,66.7,29.90,NNW,335,0.0,1.0,89,0.00,,,0.00,WeatherCatV1.21B27,2013-10-17 07:58:00,
2013-10-17 04:03:00,70.0,66.6,29.90,NNW,338,0.0,1.0,89,0.00,,,0.00,WeatherCatV1.21B27,2013-10-17 08:03:00,
2013-10-17 04:08:00,70.0,66.6,29.90,NNW,343,0.0,1.0,89,0.00,,,0.00,WeatherCatV1.21B27,2013-10-17 08:08:00,
2013-10-17 04:13:00,69.9,66.5,29.90,NNW,346,0.0,0.0,89,0.00,,,0.00,WeatherCatV1.21B27,2013-10-17 08:13:00,
2013-10-17 04:18:00,69.9,66.2,29.90,NNW,346,0.0,1.0,88,0.00,,,0.00,WeatherCatV1.21B27,2013-10-17 08:18:00,
2013-10-17 04:23:00,70.0,66.3,29.91,NNW,348,0.0,0.0,88,0.00,,,0.00,WeatherCatV1.21B27,2013-10-17 08:23:00,
2013-10-17 04:28:00,70.0,66.3,29.90,North,0,0.0,1.0,88,0.00,,,0.00,WeatherCatV1.21B27,2013-10-17 08:28:00,
2013-10-17 04:33:00,69.9,66.2,29.90,North,5,0.0,1.0,88,0.00,,,0.00,WeatherCatV1.21B27,2013-10-17 08:33:00,
2013-10-17 04:38:00,69.9,66.2,29.90,NNE,19,0.0,2.0,88,0.00,,,0.00,WeatherCatV1.21B27,2013-10-17 08:38:00,
2013-10-17 04:43:00,69.9,66.2,29.91,ENE,76,1.0,2.0,88,0.00,,,0.00,WeatherCatV1.21B27,2013-10-17 08:43:00,
2013-10-17 04:48:00,69.9,66.5,29.91,ENE,74,0.0,2.0,89,0.00,,,0.00,WeatherCatV1.21B27,2013-10-17 08:48:00,
2013-10-17 04:53:00,69.9,66.5,29.91,ENE,74,0.0,0.0,89,0.00,,,0.00,WeatherCatV1.21B27,2013-10-17 08:53:00,
2013-10-17 04:58:00,69.8,66.4,29.91,ENE,74,0.0,2.0,89,0.00,,,0.00,WeatherCatV1.21B27,2013-10-17 08:58:00,
2013-10-17 05:03:00,69.8,66.4,29.91,ENE,74,0.0,0.0,89,0.00,,,0.00,WeatherCatV1.21B27,2013-10-17 09:03:00,
2013-10-17 05:08:00,69.8,66.4,29.91,ENE,74,0.0,1.0,89,0.00,,,0.00,WeatherCatV1.21B27,2013-10-17 09:08:00,
2013-10-17 05:13:00,69.8,66.4,29.91,ENE,74,0.0,1.0,89,0.00,,,0.00,WeatherCatV1.21B27,2013-10-17 09:13:00,
2013-10-17 05:18:00,69.7,66.3,29.91,ENE,74,0.0,1.0,89,0.00,,,0.00,WeatherCatV1.21B27,2013-10-17 09:18:00,
2013-10-17 05:23:00,69.8,66.4,29.91,ENE,78,1.0,2.0,89,0.00,,,0.00,WeatherCatV1.21B27,2013-10-17 09:23:00,
2013-10-17 05:28:00,69.7,66.6,29.91,ENE,71,0.0,4.0,90,0.00,,,0.00,WeatherCatV1.21B27,2013-10-17 09:28:00,
2013-10-17 05:33:00,69.7,66.6,29.92,ENE,71,0.0,1.0,90,0.00,,,0.00,WeatherCatV1.21B27,2013-10-17 09:33:00,
2013-10-17 05:38:00,69.7,66.6,29.91,ENE,71,0.0,1.0,90,0.00,,,0.00,WeatherCatV1.21B27,2013-10-17 09:38:00,
2013-10-17 05:43:00,69.7,66.6,29.92,ENE,71,0.0,1.0,90,0.00,,,0.00,WeatherCatV1.21B27,2013-10-17 09:43:00,
2013-10-17 05:48:00,69.7,66.6,29.92,ENE,71,0.0,1.0,90,0.00,,,0.00,WeatherCatV1.21B27,2013-10-17 09:48:00,
2013-10-17 05:53:00,69.6,66.5,29.92,ENE,71,0.0,0.0,90,0.00,,,0.00,WeatherCatV1.21B27,2013-10-17 09:53:00,
2013-10-17 05:58:00,69.6,66.5,29.92,ENE,71,0.0,1.0,90,0.00,,,0.00,WeatherCatV1.21B27,2013-10-17 09:58:00,
2013-10-17 06:03:00,69.6,66.5,29.92,ENE,71,0.0,1.0,90,0.00,,,0.00,WeatherCatV1.21B27,2013-10-17 10:03:00,
2013-10-17 06:08:00,69.5,66.4,29.92,ENE,71,0.0,0.0,90,0.00,,,0.00,WeatherCatV1.21B27,2013-10-17 10:08:00,
2013-10-17 06:13:00,69.5,66.4,29.92,ENE,71,0.0,1.0,90,0.00,,,0.00,WeatherCatV1.21B27,2013-10-17 10:13:00,
2013-10-17 06:18:00,69.5,66.8,29.92,ENE,71,0.0,1.0,91,0.00,,,0.00,WeatherCatV1.21B27,2013-10-17 10:18:00,
2013-10-17 06:23:00,69.5,66.8,29.92,ENE,71,0.0,0.0,91,0.00,,,0.00,WeatherCatV1.21B27,2013-10-17 10:23:00,
2013-10-17 06:28:00,69.5,66.8,29.92,ENE,71,0.0,0.0,91,0.00,,,0.00,WeatherCatV1.21B27,2013-10-17 10:28:00,
2013-10-17 06:33:00,69.5,66.8,29.93,ENE,71,0.0,0.0,91,0.00,,,0.00,WeatherCatV1.21B27,2013-10-17 10:33:00,
2013-10-17 06:38:00,69.5,66.8,29.92,ENE,71,0.0,0.0,91,0.00,,,0.00,WeatherCatV1.21B27,2013-10-17 10:38:00,
2013-10-17 06:43:00,69.5,66.8,29.92,ENE,71,0.0,0.0,91,0.00,,,0.00,WeatherCatV1.21B27,2013-10-17 10:43:00,
2013-10-17 06:48:00,69.5,66.8,29.93,ENE,71,0.0,0.0,91,0.00,,,0.00,WeatherCatV1.21B27,2013-10-17 10:48:00,
2013-10-17 06:53:00,69.5,66.8,29.93,ENE,71,0.0,0.0,91,0.00,,,0.00,WeatherCatV1.21B27,2013-10-17 10:53:00,
2013-10-17 06:58:00,69.4,66.7,29.93,ENE,71,0.0,0.0,91,0.00,,,0.00,WeatherCatV1.21B27,2013-10-17 10:58:00,
2013-10-17 07:03:00,69.4,67.0,29.93,ENE,71,0.0,0.0,92,0.00,,,0.00,WeatherCatV1.21B27,2013-10-17 11:03:00,
2013-10-17 07:08:00,69.3,66.6,29.93,ENE,71,0.0,0.0,91,0.00,,,0.00,WeatherCatV1.21B27,2013-10-17 11:08:00,
2013-10-17 07:13:00,69.2,66.4,29.94,ENE,71,0.0,0.0,91,0.00,,,0.00,WeatherCatV1.21B27,2013-10-17 11:13:00,
2013-10-17 07:18:00,69.2,66.4,29.94,ENE,71,0.0,0.0,91,0.00,,,0.00,WeatherCatV1.21B27,2013-10-17 11:18:00,
2013-10-17 07:23:00,69.1,66.7,29.94,ENE,71,0.0,0.0,92,0.00,,,0.00,WeatherCatV1.21B27,2013-10-17 11:23:00,
2013-10-17 07:28:00,69.1,66.4,29.94,ENE,71,0.0,0.0,91,0.00,,,0.00,WeatherCatV1.21B27,2013-10-17 11:28:00,
2013-10-17 07:33:00,69.0,66.3,29.94,ENE,71,0.0,0.0,91,0.00,,,0.00,WeatherCatV1.21B27,2013-10-17 11:33:00,
2013-10-17 07:38:00,69.0,66.6,29.94,ENE,71,0.0,0.0,92,0.00,,,0.00,WeatherCatV1.21B27,2013-10-17 11:38:00,
2013-10-17 07:43:00,68.9,66.5,29.94,ENE,71,0.0,0.0,92,0.00,,,0.00,WeatherCatV1.21B27,2013-10-17 11:43:00,
2013-10-17 07:48:00,68.9,66.5,29.94,ENE,71,0.0,0.0,92,0.00,,,0.00,WeatherCatV1.21B27,2013-10-17 11:48:00,
2013-10-17 07:53:00,69.0,66.6,29.94,ENE,71,0.0,0.0,92,0.00,,,0.00,WeatherCatV1.21B27,2013-10-17 11:53:00,
2013-10-17 07:58:00,69.1,67.0,29.94,ENE,71,0.0,0.0,93,0.00,,,0.00,WeatherCatV1.21B27,2013-10-17 11:58:00,
2013-10-17 08:03:00,69.1,67.0,29.95,ENE,71,0.0,0.0,93,0.00,,,0.00,WeatherCatV1.21B27,2013-10-17 12:03:00,
2013-10-17 08:08:00,69.2,67.1,29.95,ENE,71,0.0,0.0,93,0.00,,,0.00,WeatherCatV1.21B27,2013-10-17 12:08:00,
2013-10-17 08:13:00,69.4,67.3,29.95,ENE,71,0.0,0.0,93,0.00,,,0.00,WeatherCatV1.21B27,2013-10-17 12:13:00,
2013-10-17 08:18:00,69.5,67.4,29.95,ENE,71,0.0,0.0,93,0.00,,,0.00,WeatherCatV1.21B27,2013-10-17 12:18:00,
2013-10-17 08:23:00,69.7,67.6,29.95,ENE,71,0.0,0.0,93,0.00,,,0.00,WeatherCatV1.21B27,2013-10-17 12:23:00,
2013-10-17 08:28:00,70.0,67.9,29.95,ENE,71,0.0,0.0,93,0.00,,,0.00,WeatherCatV1.21B27,2013-10-17 12:28:00,
2013-10-17 08:33:00,70.4,68.3,29.95,ENE,71,0.0,0.0,93,0.00,,,0.00,WeatherCatV1.21B27,2013-10-17 12:33:00,
2013-10-17 08:38:00,70.8,68.7,29.95,ENE,71,1.0,2.0,93,0.00,,,0.00,WeatherCatV1.21B27,2013-10-17 12:38:00,
2013-10-17 08:43:00,71.4,68.9,29.95,ENE,71,0.0,0.0,92,0.00,,,0.00,WeatherCatV1.21B27,2013-10-17 12:43:00,
2013-10-17 08:48:00,71.9,69.1,29.96,ENE,71,0.0,0.0,91,0.00,,,0.00,WeatherCatV1.21B27,2013-10-17 12:48:00,
2013-10-17 08:53:00,72.5,69.4,29.96,ENE,71,0.0,1.0,90,0.00,,,0.00,WeatherCatV1.21B27,2013-10-17 12:53:00,
2013-10-17 08:58:00,73.0,69.6,29.96,ENE,71,0.0,2.0,89,0.00,,,0.00,WeatherCatV1.21B27,2013-10-17 12:58:00,
2013-10-17 09:03:00,73.7,69.9,29.96,ENE,71,2.0,2.0,88,0.00,,,0.00,WeatherCatV1.21B27,2013-10-17 13:03:00,
2013-10-17 09:08:00,74.3,70.2,29.96,ENE,71,0.0,1.0,87,0.00,,,0.00,WeatherCatV1.21B27,2013-10-17 13:08:00,
2013-10-17 09:13:00,74.8,70.3,29.97,ENE,73,0.0,1.0,86,0.00,,,0.00,WeatherCatV1.21B27,2013-10-17 13:13:00,
2013-10-17 09:18:00,75.4,70.6,29.97,ENE,73,0.0,2.0,85,0.00,,,0.00,WeatherCatV1.21B27,2013-10-17 13:18:00,
2013-10-17 09:23:00,75.9,70.7,29.97,ENE,73,2.0,3.0,84,0.00,,,0.00,WeatherCatV1.21B27,2013-10-17 13:23:00,
2013-10-17 09:28:00,76.3,71.1,29.97,ENE,76,0.0,0.0,84,0.00,,,0.00,WeatherCatV1.21B27,2013-10-17 13:28:00,
2013-10-17 09:33:00,76.9,71.3,29.97,East,83,0.0,1.0,83,0.00,,,0.00,WeatherCatV1.21B27,2013-10-17 13:33:00,
2013-10-17 09:38:00,77.5,71.6,29.97,East,83,0.0,2.0,82,0.00,,,0.00,WeatherCatV1.21B27,2013-10-17 13:38:00,
2013-10-17 09:43:00,77.9,71.9,29.97,East,86,1.0,2.0,82,0.00,,,0.00,WeatherCatV1.21B27,2013-10-17 13:43:00,
2013-10-17 09:48:00,78.4,71.7,29.97,SE,129,0.0,2.0,80,0.00,,,0.00,WeatherCatV1.21B27,2013-10-17 13:48:00,
2013-10-17 09:53:00,78.9,71.4,29.97,South,175,0.0,3.0,78,0.00,,,0.00,WeatherCatV1.21B27,2013-10-17 13:53:00,
2013-10-17 09:58:00,79.4,71.5,29.97,SSE,163,0.0,1.0,77,0.00,,,0.00,WeatherCatV1.21B27,2013-10-17 13:58:00,
2013-10-17 10:03:00,80.0,71.7,29.97,SE,142,1.0,2.0,76,0.00,,,0.00,WeatherCatV1.21B27,2013-10-17 14:03:00,
2013-10-17 10:08:00,80.4,71.3,29.97,SE,144,0.0,2.0,74,0.00,,,0.00,WeatherCatV1.21B27,2013-10-17 14:08:00,
2013-10-17 10:13:00,80.9,71.4,29.97,South,171,2.0,2.0,73,0.00,,,0.00,WeatherCatV1.21B27,2013-10-17 14:13:00,
2013-10-17 10:18:00,81.2,71.7,29.97,South,182,1.0,2.0,73,0.00,,,0.00,WeatherCatV1.21B27,2013-10-17 14:18:00,
2013-10-17 10:23:00,81.7,70.9,29.97,SE,134,0.0,2.0,70,0.00,,,0.00,WeatherCatV1.21B27,2013-10-17 14:23:00,
2013-10-17 10:28:00,82.0,71.6,29.97,ESE,107,0.0,1.0,71,0.00,,,0.00,WeatherCatV1.21B27,2013-10-17 14:28:00,
2013-10-17 10:33:00,82.2,70.6,29.97,SE,136,1.0,2.0,68,0.00,,,0.00,WeatherCatV1.21B27,2013-10-17 14:33:00,
2013-10-17 10:38:00,82.6,71.8,29.97,SE,136,0.0,0.0,70,0.00,,,0.00,WeatherCatV1.21B27,2013-10-17 14:38:00,
2013-10-17 10:43:00,83.0,70.9,29.97,South,169,2.0,4.0,67,0.00,,,0.00,WeatherCatV1.21B27,2013-10-17 14:43:00,
2013-10-17 10:48:00,83.1,71.0,29.97,South,169,0.0,1.0,67,0.00,,,0.00,WeatherCatV1.21B27,2013-10-17 14:48:00,
2013-10-17 10:53:00,83.3,71.6,29.98,WSW,248,0.0,4.0,68,0.00,,,0.00,WeatherCatV1.21B27,2013-10-17 14:53:00,
2013-10-17 10:58:00,83.6,71.4,29.97,SSW,211,0.0,1.0,67,0.00,,,0.00,WeatherCatV1.21B27,2013-10-17 14:58:00,
2013-10-17 11:03:00,83.9,70.8,29.97,South,184,1.0,4.0,65,0.00,,,0.00,WeatherCatV1.21B27,2013-10-17 15:03:00,
2013-10-17 11:08:00,84.2,71.1,29.97,South,183,0.0,3.0,65,0.00,,,0.00,WeatherCatV1.21B27,2013-10-17 15:08:00,
2013-10-17 11:13:00,84.4,72.2,29.97,SW,225,0.0,4.0,67,0.00,,,0.00,WeatherCatV1.21B27,2013-10-17 15:13:00,
2013-10-17 11:18:00,84.6,70.6,29.97,SW,223,0.0,5.0,63,0.00,,,0.00,WeatherCatV1.21B27,2013-10-17 15:18:00,
2013-10-17 11:23:00,85.0,71.4,29.97,SW,225,1.0,2.0,64,0.00,,,0.00,WeatherCatV1.21B27,2013-10-17 15:23:00,
2013-10-17 11:28:00,85.3,70.8,29.97,SSW,202,0.0,1.0,62,0.00,,,0.00,WeatherCatV1.21B27,2013-10-17 15:28:00,
2013-10-17 11:33:00,85.5,71.0,29.97,SSW,210,0.0,1.0,62,0.00,,,0.00,WeatherCatV1.21B27,2013-10-17 15:33:00,
2013-10-17 11:38:00,85.8,71.2,29.97,SW,234,0.0,0.0,62,0.00,,,0.00,WeatherCatV1.21B27,2013-10-17 15:38:00,
2013-10-17 11:43:00,86.1,71.5,29.97,SW,228,0.0,2.0,62,0.00,,,0.00,WeatherCatV1.21B27,2013-10-17 15:43:00,
2013-10-17 11:48:00,86.1,71.5,29.96,SW,221,1.0,4.0,62,0.00,,,0.00,WeatherCatV1.21B27,2013-10-17 15:48:00,
2013-10-17 11:53:00,86.1,71.5,29.97,SW,219,0.0,1.0,62,0.00,,,0.00,WeatherCatV1.21B27,2013-10-17 15:53:00,
2013-10-17 11:58:00,86.3,72.2,29.96,SW,227,0.0,5.0,63,0.00,,,0.00,WeatherCatV1.21B27,2013-10-17 15:58:00,
2013-10-17 12:03:00,86.5,71.9,29.96,South,172,1.0,4.0,62,0.00,,,0.00,WeatherCatV1.21B27,2013-10-17 16:03:00,
2013-10-17 12:08:00,86.7,71.6,29.96,SW,217,4.0,5.0,61,0.00,,,0.00,WeatherCatV1.21B27,2013-10-17 16:08:00,
2013-10-17 12:13:00,87.0,69.9,29.96,SW,236,2.0,3.0,57,0.00,,,0.00,WeatherCatV1.21B27,2013-10-17 16:13:00,
2013-10-17 12:18:00,87.2,71.6,29.96,SW,236,0.0,3.0,60,0.00,,,0.00,WeatherCatV1.21B27,2013-10-17 16:18:00,
2013-10-17 12:23:00,87.3,72.2,29.96,West,276,6.0,7.0,61,0.00,,,0.00,WeatherCatV1.21B27,2013-10-17 16:23:00,
2013-10-17 12:28:00,87.2,70.6,29.96,South,190,0.0,2.0,58,0.00,,,0.00,WeatherCatV1.21B27,2013-10-17 16:28:00,
2013-10-17 12:33:00,87.1,70.0,29.96,SW,235,0.0,1.0,57,0.00,,,0.00,WeatherCatV1.21B27,2013-10-17 16:33:00,
2013-10-17 12:38:00,87.2,70.1,29.95,SW,221,1.0,4.0,57,0.00,,,0.00,WeatherCatV1.21B27,2013-10-17 16:38:00,
2013-10-17 12:43:00,87.3,71.7,29.95,West,263,2.0,2.0,60,0.00,,,0.00,WeatherCatV1.21B27,2013-10-17 16:43:00,
2013-10-17 12:48:00,87.4,72.8,29.95,West,269,6.0,8.0,62,0.00,,,0.00,WeatherCatV1.21B27,2013-10-17 16:48:00,
2013-10-17 12:53:00,87.0,71.4,29.95,WSW,248,1.0,9.0,60,0.00,,,0.00,WeatherCatV1.21B27,2013-10-17 16:53:00,
2013-10-17 12:58:00,86.9,72.8,29.95,West,281,4.0,9.0,63,0.00,,,0.00,WeatherCatV1.21B27,2013-10-17 16:58:00,
2013-10-17 13:03:00,87.0,72.8,29.95,West,276,4.0,6.0,63,0.00,,,0.00,WeatherCatV1.21B27,2013-10-17 17:03:00,
2013-10-17 13:08:00,87.0,72.8,29.95,SW,229,2.0,6.0,63,0.00,,,0.00,WeatherCatV1.21B27,2013-10-17 17:08:00,
2013-10-17 13:13:00,87.0,70.9,29.94,SW,233,0.0,2.0,59,0.00,,,0.00,WeatherCatV1.21B27,2013-10-17 17:13:00,
2013-10-17 13:18:00,87.2,72.6,29.94,West,279,0.0,6.0,62,0.00,,,0.00,WeatherCatV1.21B27,2013-10-17 17:18:00,
2013-10-17 13:23:00,87.3,73.1,29.94,West,275,4.0,6.0,63,0.00,,,0.00,WeatherCatV1.21B27,2013-10-17 17:23:00,
2013-10-17 13:28:00,87.4,73.2,29.94,West,279,2.0,5.0,63,0.00,,,0.00,WeatherCatV1.21B27,2013-10-17 17:28:00,
2013-10-17 13:33:00,87.3,73.1,29.94,West,267,2.0,5.0,63,0.00,,,0.00,WeatherCatV1.21B27,2013-10-17 17:33:00,
2013-10-17 13:38:00,87.2,73.0,29.94,WNW,290,1.0,7.0,63,0.00,,,0.00,WeatherCatV1.21B27,2013-10-17 17:38:00,
2013-10-17 13:43:00,87.1,72.5,29.94,WSW,240,0.0,7.0,62,0.00,,,0.00,WeatherCatV1.21B27,2013-10-17 17:43:00,
2013-10-17 13:48:00,87.1,72.5,29.93,South,187,0.0,6.0,62,0.00,,,0.00,WeatherCatV1.21B27,2013-10-17 17:48:00,
2013-10-17 13:53:00,87.4,72.3,29.93,SSW,202,1.0,6.0,61,0.00,,,0.00,WeatherCatV1.21B27,2013-10-17 17:53:00,
2013-10-17 13:58:00,87.8,72.2,29.93,SW,233,3.0,5.0,60,0.00,,,0.00,WeatherCatV1.21B27,2013-10-17 17:58:00,
2013-10-17 14:03:00,87.9,72.7,29.92,WNW,294,0.0,8.0,61,0.00,,,0.00,WeatherCatV1.21B27,2013-10-17 18:03:00,
2013-10-17 14:08:00,87.9,71.7,29.92,West,279,2.0,4.0,59,0.00,,,0.00,WeatherCatV1.21B27,2013-10-17 18:08:00,
2013-10-17 14:13:00,87.5,72.4,29.92,SW,236,2.0,7.0,61,0.00,,,0.00,WeatherCatV1.21B27,2013-10-17 18:13:00,
2013-10-17 14:18:00,87.4,72.8,29.92,WSW,242,1.0,6.0,62,0.00,,,0.00,WeatherCatV1.21B27,2013-10-17 18:18:00,
2013-10-17 14:23:00,87.4,72.8,29.92,SW,222,5.0,8.0,62,0.00,,,0.00,WeatherCatV1.21B27,2013-10-17 18:23:00,
2013-10-17 14:28:00,87.4,72.3,29.91,SSW,213,1.0,9.0,61,0.00,,,0.00,WeatherCatV1.21B27,2013-10-17 18:28:00,
2013-10-17 14:33:00,87.5,72.8,29.91,WSW,251,0.0,0.0,62,0.00,,,0.00,WeatherCatV1.21B27,2013-10-17 18:33:00,
2013-10-17 14:38:00,87.6,72.9,29.91,West,268,0.0,6.0,62,0.00,,,0.00,WeatherCatV1.21B27,2013-10-17 18:38:00,
2013-10-17 14:43:00,87.2,72.6,29.91,SW,229,3.0,7.0,62,0.00,,,0.00,WeatherCatV1.21B27,2013-10-17 18:43:00,
2013-10-17 14:48:00,87.1,73.9,29.91,West,263,4.0,8.0,65,0.00,,,0.00,WeatherCatV1.21B27,2013-10-17 18:48:00,
2013-10-17 14:53:00,86.8,71.7,29.90,WSW,246,0.0,6.0,61,0.00,,,0.00,WeatherCatV1.21B27,2013-10-17 18:53:00,
2013-10-17 14:58:00,86.9,73.2,29.90,West,281,5.0,7.0,64,0.00,,,0.00,WeatherCatV1.21B27,2013-10-17 18:58:00,
2013-10-17 15:03:00,86.4,72.8,29.90,WNW,292,5.0,8.0,64,0.00,,,0.00,WeatherCatV1.21B27,2013-10-17 19:03:00,
2013-10-17 15:08:00,86.0,72.8,29.90,West,262,5.0,7.0,65,0.00,,,0.00,WeatherCatV1.21B27,2013-10-17 19:08:00,
2013-10-17 15:13:00,85.7,73.0,29.90,WNW,282,0.0,7.0,66,0.00,,,0.00,WeatherCatV1.21B27,2013-10-17 19:13:00,
2013-10-17 15:18:00,85.8,73.1,29.90,WNW,284,4.0,5.0,66,0.00,,,0.00,WeatherCatV1.21B27,2013-10-17 19:18:00,
2013-10-17 15:23:00,85.7,72.6,29.90,WNW,283,2.0,9.0,65,0.00,,,0.00,WeatherCatV1.21B27,2013-10-17 19:23:00,
2013-10-17 15:28:00,85.6,72.4,29.90,WNW,296,2.0,6.0,65,0.00,,,0.00,WeatherCatV1.21B27,2013-10-17 19:28:00,
2013-10-17 15:31:00,85.6,72.4,29.90,West,263,2.0,5.0,65,0.00,,,0.00,WeatherCatV1.21B27,2013-10-17 19:31:00,
2013-10-17 15:36:00,85.7,73.0,29.90,SSW,210,2.0,4.0,66,0.00,,,0.00,WeatherCatV1.21B27,2013-10-17 19:36:00,
2013-10-17 15:41:00,85.8,73.5,29.90,WNW,283,5.0,5.0,67,0.00,,,0.00,WeatherCatV1.21B27,2013-10-17 19:41:00,
2013-10-17 15:46:00,85.7,73.9,29.90,WSW,254,0.0,9.0,68,0.00,,,0.00,WeatherCatV1.21B27,2013-10-17 19:46:00,
2013-10-17 15:51:00,85.4,73.6,29.90,WNW,290,5.0,9.0,68,0.00,,,0.00,WeatherCatV1.21B27,2013-10-17 19:51:00,
2013-10-17 15:56:00,85.1,73.8,29.90,West,268,3.0,11.0,69,0.00,,,0.00,WeatherCatV1.21B27,2013-10-17 19:56:00,
2013-10-17 16:01:00,84.9,73.6,29.90,SW,228,7.0,7.0,69,0.00,,,0.00,WeatherCatV1.21B27,2013-10-17 20:01:00,
2013-10-17 16:06:00,84.8,73.0,29.90,WNW,284,7.0,7.0,68,0.00,,,0.00,WeatherCatV1.21B27,2013-10-17 20:06:00,
2013-10-17 16:11:00,84.6,74.1,29.90,West,277,2.0,10.0,71,0.00,,,0.00,WeatherCatV1.21B27,2013-10-17 20:11:00,
2013-10-17 16:16:00,84.5,73.2,29.90,West,265,1.0,10.0,69,0.00,,,0.00,WeatherCatV1.21B27,2013-10-17 20:16:00,
2013-10-17 16:21:00,84.4,73.5,29.90,West,264,8.0,9.0,70,0.00,,,0.00,WeatherCatV1.21B27,2013-10-17 20:21:00,
2013-10-17 16:26:00,84.2,72.9,29.90,West,281,4.0,7.0,69,0.00,,,0.00,WeatherCatV1.21B27,2013-10-17 20:26:00,
2013-10-17 16:31:00,84.2,73.3,29.90,WNW,290,2.0,8.0,70,0.00,,,0.00,WeatherCatV1.21B27,2013-10-17 20:31:00,
2013-10-17 16:36:00,84.2,73.3,29.90,West,279,5.0,10.0,70,0.00,,,0.00,WeatherCatV1.21B27,2013-10-17 20:36:00,
2013-10-17 16:41:00,84.2,72.9,29.90,NNW,327,3.0,10.0,69,0.00,,,0.00,WeatherCatV1.21B27,2013-10-17 20:41:00,
2013-10-17 16:46:00,84.1,72.8,29.90,WNW,286,5.0,10.0,69,0.00,,,0.00,WeatherCatV1.21B27,2013-10-17 20:46:00,
2013-10-17 16:51:00,84.1,73.2,29.90,West,274,3.0,7.0,70,0.00,,,0.00,WeatherCatV1.21B27,2013-10-17 20:51:00,
2013-10-17 16:56:00,84.1,72.8,29.90,West,260,1.0,6.0,69,0.00,,,0.00,WeatherCatV1.21B27,2013-10-17 20:56:00,
2013-10-17 17:01:00,84.2,73.8,29.90,WNW,290,4.0,7.0,71,0.00,,,0.00,WeatherCatV1.21B27,2013-10-17 21:01:00,
2013-10-17 17:06:00,84.0,72.7,29.90,West,275,5.0,10.0,69,0.00,,,0.00,WeatherCatV1.21B27,2013-10-17 21:06:00,
2013-10-17 17:11:00,83.9,72.6,29.90,WNW,288,5.0,9.0,69,0.00,,,0.00,WeatherCatV1.21B27,2013-10-17 21:11:00,
2013-10-17 17:16:00,83.9,72.2,29.90,WSW,251,2.0,6.0,68,0.00,,,0.00,WeatherCatV1.21B27,2013-10-17 21:16:00,
2013-10-17 17:21:00,83.9,73.0,29.90,WNW,285,0.0,4.0,70,0.00,,,0.00,WeatherCatV1.21B27,2013-10-17 21:21:00,
2013-10-17 17:26:00,83.9,72.2,29.90,WNW,291,1.0,3.0,68,0.00,,,0.00,WeatherCatV1.21B27,2013-10-17 21:26:00,
2013-10-17 17:31:00,83.8,71.6,29.90,NW,311,0.0,6.0,67,0.00,,,0.00,WeatherCatV1.21B27,2013-10-17 21:31:00,
2013-10-17 17:36:00,83.5,71.8,29.90,WNW,296,2.0,7.0,68,0.00,,,0.00,WeatherCatV1.21B27,2013-10-17 21:36:00,
2013-10-17 17:41:00,83.3,71.6,29.90,WSW,257,2.0,8.0,68,0.00,,,0.00,WeatherCatV1.21B27,2013-10-17 21:41:00,
2013-10-17 17:46:00,83.2,71.5,29.89,West,277,4.0,7.0,68,0.00,,,0.00,WeatherCatV1.21B27,2013-10-17 21:46:00,
2013-10-17 17:51:00,83.1,72.3,29.89,WNW,290,2.0,7.0,70,0.00,,,0.00,WeatherCatV1.21B27,2013-10-17 21:51:00,
2013-10-17 17:56:00,82.9,71.2,29.89,WNW,287,4.0,4.0,68,0.00,,,0.00,WeatherCatV1.21B27,2013-10-17 21:56:00,
2013-10-17 18:01:00,82.7,71.5,29.90,WNW,286,2.0,4.0,69,0.00,,,0.00,WeatherCatV1.21B27,2013-10-17 22:01:00,
2013-10-17 18:06:00,82.5,71.7,29.90,WNW,292,1.0,6.0,70,0.00,,,0.00,WeatherCatV1.21B27,2013-10-17 22:06:00,
2013-10-17 18:11:00,82.3,71.9,29.90,WNW,301,1.0,5.0,71,0.00,,,0.00,WeatherCatV1.21B27,2013-10-17 22:11:00,
2013-10-17 18:16:00,82.1,71.7,29.90,WSW,257,0.0,5.0,71,0.00,,,0.00,WeatherCatV1.21B27,2013-10-17 22:16:00,
2013-10-17 18:21:00,82.0,71.6,29.90,WNW,294,1.0,6.0,71,0.00,,,0.00,WeatherCatV1.21B27,2013-10-17 22:21:00,
2013-10-17 18:26:00,81.8,71.4,29.90,WNW,294,2.0,4.0,71,0.00,,,0.00,WeatherCatV1.21B27,2013-10-17 22:26:00,
2013-10-17 18:31:00,81.6,71.3,29.90,NW,315,2.0,5.0,71,0.00,,,0.00,WeatherCatV1.21B27,2013-10-17 22:31:00,
2013-10-17 18:36:00,81.4,71.1,29.90,WNW,298,1.0,5.0,71,0.00,,,0.00,WeatherCatV1.21B27,2013-10-17 22:36:00,
2013-10-17 18:41:00,81.3,71.4,29.90,West,274,2.0,4.0,72,0.00,,,0.00,WeatherCatV1.21B27,2013-10-17 22:41:00,
2013-10-17 18:46:00,81.1,71.6,29.90,WNW,292,3.0,6.0,73,0.00,,,0.00,WeatherCatV1.21B27,2013-10-17 22:46:00,
2013-10-17 18:51:00,80.8,71.7,29.90,West,273,2.0,3.0,74,0.00,,,0.00,WeatherCatV1.21B27,2013-10-17 22:51:00,
2013-10-17 18:56:00,80.6,71.5,29.90,WNW,287,4.0,6.0,74,0.00,,,0.00,WeatherCatV1.21B27,2013-10-17 22:56:00,
2013-10-17 19:01:00,80.4,71.7,29.90,NW,309,2.0,4.0,75,0.00,,,0.00,WeatherCatV1.21B27,2013-10-17 23:01:00,
2013-10-17 19:06:00,80.2,71.5,29.90,WNW,284,2.0,5.0,75,0.00,,,0.00,WeatherCatV1.21B27,2013-10-17 23:06:00,
2013-10-17 19:11:00,80.0,71.7,29.90,West,280,2.0,3.0,76,0.00,,,0.00,WeatherCatV1.21B27,2013-10-17 23:11:00,
2013-10-17 19:16:00,79.7,71.4,29.90,West,281,0.0,0.0,76,0.00,,,0.00,WeatherCatV1.21B27,2013-10-17 23:16:00,
2013-10-17 19:21:00,79.6,71.3,29.90,NNW,327,0.0,1.0,76,0.00,,,0.00,WeatherCatV1.21B27,2013-10-17 23:21:00,
2013-10-17 19:26:00,79.4,71.5,29.90,NNW,327,0.0,2.0,77,0.00,,,0.00,WeatherCatV1.21B27,2013-10-17 23:26:00,
2013-10-17 19:31:00,79.3,71.4,29.90,NNW,327,0.0,1.0,77,0.00,,,0.00,WeatherCatV1.21B27,2013-10-17 23:31:00,
2013-10-17 19:36:00,79.1,71.2,29.90,NW,322,0.0,2.0,77,0.00,,,0.00,WeatherCatV1.21B27,2013-10-17 23:36:00,
2013-10-17 19:41:00,78.9,71.4,29.90,NW,322,0.0,0.0,78,0.00,,,0.00,WeatherCatV1.21B27,2013-10-17 23:41:00,
2013-10-17 19:46:00,78.8,71.3,29.90,NW,322,0.0,0.0,78,0.00,,,0.00,WeatherCatV1.21B27,2013-10-17 23:46:00,
2013-10-17 19:51:00,78.6,71.2,29.90,NW,322,0.0,0.0,78,0.00,,,0.00,WeatherCatV1.21B27,2013-10-17 23:51:00,
2013-10-17 19:56:00,78.4,70.9,29.90,NW,322,0.0,0.0,78,0.00,,,0.00,WeatherCatV1.21B27,2013-10-17 23:56:00,
2013-10-17 20:01:00,78.2,71.1,29.90,NW,322,0.0,0.0,79,0.00,,,0.00,WeatherCatV1.21B27,2013-10-18 00:01:00,
2013-10-17 20:06:00,77.8,71.1,29.91,NW,322,0.0,0.0,80,0.00,,,0.00,WeatherCatV1.21B27,2013-10-18 00:06:00,
2013-10-17 20:11:00,77.6,70.9,29.91,NW,322,0.0,0.0,80,0.00,,,0.00,WeatherCatV1.21B27,2013-10-18 00:11:00,
2013-10-17 20:16:00,77.3,70.6,29.91,NW,322,0.0,0.0,80,0.00,,,0.00,WeatherCatV1.21B27,2013-10-18 00:16:00,
2013-10-17 20:21:00,77.1,70.8,29.91,NW,322,0.0,0.0,81,0.00,,,0.00,WeatherCatV1.21B27,2013-10-18 00:21:00,
2013-10-17 20:26:00,76.8,70.5,29.91,NW,322,0.0,0.0,81,0.00,,,0.00,WeatherCatV1.21B27,2013-10-18 00:26:00,
2013-10-17 20:31:00,76.6,70.7,29.91,NW,322,0.0,0.0,82,0.00,,,0.00,WeatherCatV1.21B27,2013-10-18 00:31:00,
2013-10-17 20:36:00,76.3,70.4,29.91,NW,322,0.0,0.0,82,0.00,,,0.00,WeatherCatV1.21B27,2013-10-18 00:36:00,
2013-10-17 20:41:00,76.1,70.6,29.92,NW,322,0.0,0.0,83,0.00,,,0.00,WeatherCatV1.21B27,2013-10-18 00:41:00,
2013-10-17 20:46:00,75.8,70.2,29.92,NW,322,0.0,0.0,83,0.00,,,0.00,WeatherCatV1.21B27,2013-10-18 00:46:00,
2013-10-17 20:51:00,75.7,70.2,29.91,NW,322,0.0,0.0,83,0.00,,,0.00,WeatherCatV1.21B27,2013-10-18 00:51:00,
2013-10-17 20:56:00,75.5,70.3,29.92,NW,322,0.0,0.0,84,0.00,,,0.00,WeatherCatV1.21B27,2013-10-18 00:56:00,
2013-10-17 21:01:00,75.3,70.1,29.92,NW,322,0.0,0.0,84,0.00,,,0.00,WeatherCatV1.21B27,2013-10-18 01:01:00,
2013-10-17 21:06:00,75.2,70.0,29.92,NW,322,0.0,0.0,84,0.00,,,0.00,WeatherCatV1.21B27,2013-10-18 01:06:00,
2013-10-17 21:11:00,75.0,69.8,29.92,NW,322,0.0,0.0,84,0.00,,,0.00,WeatherCatV1.21B27,2013-10-18 01:11:00,
2013-10-17 21:16:00,74.9,70.1,29.92,NW,322,0.0,0.0,85,0.00,,,0.00,WeatherCatV1.21B27,2013-10-18 01:16:00,
2013-10-17 21:21:00,74.9,70.1,29.92,NW,322,0.0,0.0,85,0.00,,,0.00,WeatherCatV1.21B27,2013-10-18 01:21:00,
2013-10-17 21:26:00,74.8,70.0,29.92,NW,322,0.0,0.0,85,0.00,,,0.00,WeatherCatV1.21B27,2013-10-18 01:26:00,
2013-10-17 21:32:00,74.6,69.8,29.92,NW,322,0.0,0.0,85,0.00,,,0.00,WeatherCatV1.21B27,2013-10-18 01:32:00,
2013-10-17 21:37:00,74.5,70.0,29.92,NW,322,0.0,0.0,86,0.00,,,0.00,WeatherCatV1.21B27,2013-10-18 01:37:00,
2013-10-17 21:42:00,74.4,69.9,29.92,NW,322,0.0,0.0,86,0.00,,,0.00,WeatherCatV1.21B27,2013-10-18 01:42:00,
2013-10-17 21:47:00,74.3,69.8,29.92,NW,322,0.0,0.0,86,0.00,,,0.00,WeatherCatV1.21B27,2013-10-18 01:47:00,
2013-10-17 21:52:00,74.1,69.6,29.92,NW,322,0.0,0.0,86,0.00,,,0.00,WeatherCatV1.21B27,2013-10-18 01:52:00,
2013-10-17 21:57:00,74.0,69.9,29.92,NW,322,0.0,0.0,87,0.00,,,0.00,WeatherCatV1.21B27,2013-10-18 01:57:00,
2013-10-17 22:02:00,73.8,69.7,29.93,NW,322,0.0,0.0,87,0.00,,,0.00,WeatherCatV1.21B27,2013-10-18 02:02:00,
2013-10-17 22:07:00,73.6,69.5,29.93,NW,322,0.0,0.0,87,0.00,,,0.00,WeatherCatV1.21B27,2013-10-18 02:07:00,
2013-10-17 22:12:00,73.5,69.7,29.93,NW,322,0.0,0.0,88,0.00,,,0.00,WeatherCatV1.21B27,2013-10-18 02:12:00,
2013-10-17 22:17:00,73.3,69.5,29.93,NW,322,0.0,0.0,88,0.00,,,0.00,WeatherCatV1.21B27,2013-10-18 02:17:00,
2013-10-17 22:22:00,73.2,69.4,29.93,NW,322,0.0,0.0,88,0.00,,,0.00,WeatherCatV1.21B27,2013-10-18 02:22:00,
2013-10-17 22:27:00,73.1,69.3,29.93,NW,322,0.0,0.0,88,0.00,,,0.00,WeatherCatV1.21B27,2013-10-18 02:27:00,
2013-10-17 22:32:00,73.0,69.6,29.93,NW,326,0.0,0.0,89,0.00,,,0.00,WeatherCatV1.21B27,2013-10-18 02:32:00,
2013-10-17 22:37:00,73.0,69.6,29.93,NNW,338,0.0,0.0,89,0.00,,,0.00,WeatherCatV1.21B27,2013-10-18 02:37:00,
2013-10-17 22:42:00,72.9,69.5,29.93,NNW,338,0.0,0.0,89,0.00,,,0.00,WeatherCatV1.21B27,2013-10-18 02:42:00,
2013-10-17 22:47:00,72.8,69.4,29.93,NNW,338,0.0,0.0,89,0.00,,,0.00,WeatherCatV1.21B27,2013-10-18 02:47:00,
2013-10-17 22:52:00,72.8,69.4,29.93,NNW,338,0.0,0.0,89,0.00,,,0.00,WeatherCatV1.21B27,2013-10-18 02:52:00,
2013-10-17 22:57:00,72.8,69.7,29.93,NNW,338,0.0,0.0,90,0.00,,,0.00,WeatherCatV1.21B27,2013-10-18 02:57:00,
2013-10-17 23:02:00,72.8,69.7,29.93,NNW,338,0.0,0.0,90,0.00,,,0.00,WeatherCatV1.21B27,2013-10-18 03:02:00,
2013-10-17 23:07:00,72.9,69.8,29.93,NNW,338,0.0,0.0,90,0.00,,,0.00,WeatherCatV1.21B27,2013-10-18 03:07:00,
2013-10-17 23:12:00,73.0,69.9,29.93,NNW,338,0.0,0.0,90,0.00,,,0.00,WeatherCatV1.21B27,2013-10-18 03:12:00,
2013-10-17 23:17:00,73.0,69.9,29.93,NNW,338,0.0,0.0,90,0.00,,,0.00,WeatherCatV1.21B27,2013-10-18 03:17:00,
2013-10-17 23:22:00,73.1,70.0,29.93,NNW,338,0.0,0.0,90,0.00,,,0.00,WeatherCatV1.21B27,2013-10-18 03:22:00,
2013-10-17 23:27:00,73.3,70.2,29.93,NNW,338,0.0,0.0,90,0.00,,,0.00,WeatherCatV1.21B27,2013-10-18 03:27:00,
2013-10-17 23:32:00,73.4,70.3,29.93,NNW,338,0.0,0.0,90,0.00,,,0.00,WeatherCatV1.21B27,2013-10-18 03:32:00,
2013-10-17 23:37:00,73.5,70.4,29.93,NNW,338,0.0,0.0,90,0.00,,,0.00,WeatherCatV1.21B27,2013-10-18 03:37:00,
2013-10-17 23:42:00,73.6,70.5,29.93,NNW,338,0.0,0.0,90,0.00,,,0.00,WeatherCatV1.21B27,2013-10-18 03:42:00,
2013-10-17 23:47:00,73.7,70.2,29.93,NNW,338,0.0,0.0,89,0.00,,,0.00,WeatherCatV1.21B27,2013-10-18 03:47:00,
2013-10-17 23:52:00,73.8,70.3,29.93,NNW,338,0.0,0.0,89,0.00,,,0.00,WeatherCatV1.21B27,2013-10-18 03:52:00,
2013-10-17 23:57:00,73.9,70.4,29.93,NNW,338,0.0,0.0,89,0.00,,,0.00,WeatherCatV1.21B27,2013-10-18 03:57:00,